Regional Weather Roundup
Issued by NWS

Home | Current Version | Previous Version | Graphics & Text | Print | Product List | Glossary On
Versions: 1 2 3 4 5 6 7 8 9 10 11 12 13 14 15 16 17 18 19 20 21 22 23 24 25 26 27 28 29 30 31 32 33 34 35 36 37 38 39 40 41 42 43 44 45 46 47 48 49 50
000
ASUS45 KBOI 052210
RWRID
WEATHER ROUNDUP FOR IDAHO
NATIONAL WEATHER SERVICE BOISE ID
300 PM MST THU MAR 05 2015

NOTE: "FAIR" INDICATES FEW OR NO CLOUDS BELOW 12000 FEET
WITH NO SIGNIFICANT WEATHER AND/OR OBSTRUCTIONS TO VISIBILITY

IDZ012-014-052300-
SOUTHWEST IDAHO


CITY           SKY/WX    TMP DP  RH WIND       PRES   REMARKS
BOISE          SUNNY     54  17  23 NE3       30.35F
CALDWELL       SUNNY     54  19  26 CALM      30.37F
MOUNTAIN HOME  SUNNY     53  14  21 S2        30.35F
$$

IDZ016-017-052300-
SOUTHCENTRAL IDAHO


CITY           SKY/WX    TMP DP  RH WIND       PRES   REMARKS
BURLEY         SUNNY     52  13  21 W8        30.33F
JEROME         MOSUNNY   51  10  19 SW12      30.35F
TWIN FALLS     SUNNY     54  15  21 W8        30.35F
$$

IDZ019>023-052300-
SOUTHEAST IDAHO


CITY           SKY/WX    TMP DP  RH WIND       PRES   REMARKS
IDAHO FALLS    SUNNY     45  14  28 SW15      30.35F
POCATELLO      SUNNY     48  12  23 W15       30.35F
REXBURG        MOSUNNY   41  17  38 SW14      30.34F
$$

IDZ006-010-011-018-031-032-052300-
CENTRAL IDAHO MOUNTAINS


CITY           SKY/WX    TMP DP  RH WIND       PRES   REMARKS
MCCALL         SUNNY     46  14  27 S9        30.30F
HAILEY         PTSUNNY   45  18  33 E10       30.33F
STANLEY          N/A     45   7  21 VRB7      30.31F
SALMON         MOSUNNY   45  12  26 SW3       30.27F
CHALLIS        SUNNY     50  10  20 NE3       30.25F
$$

IDZ002-004-006-007-026-052300-
NORTHERN IDAHO


CITY           SKY/WX    TMP DP  RH WIND       PRES   REMARKS
LEWISTON       PTSUNNY   49  22  34 CALM      30.31F
LOWELL           N/A     57  27  31 CALM      30.31F
COEUR D`ALENE  MOSUNNY   48  19  32 CALM      30.28F
MULLAN PASS    MOSUNNY   37  12  35 VRB5      30.22S WCI  33
$$


USA.gov is the U.S. government's official web portal to all federal, state and local government web resources and services.